TimeMDT,TemperatureF,Dew PointF,Humidity,Sea Level PressureIn,VisibilityMPH,Wind Direction,Wind SpeedMPH,Gust SpeedMPH,PrecipitationIn,Events,Conditions,WindDirDegrees,DateUTC
12:53 AM,75.9,55.9,50,29.86,10.0,South,9.2,-,N/A,,Clear,180,2013-09-05 06:53:00
1:53 AM,73.9,59.0,59,29.91,10.0,West,16.1,20.7,N/A,,Scattered Clouds,270,2013-09-05 07:53:00
2:03 AM,73.4,59.0,61,30.01,10.0,NW,20.7,26.5,N/A,,Scattered Clouds,310,2013-09-05 08:03:00
2:19 AM,71.6,60.8,69,30.01,10.0,North,16.1,-,N/A,,Mostly Cloudy,360,2013-09-05 08:19:00
2:44 AM,69.8,57.2,64,30.01,10.0,North,4.6,-,N/A,Thunderstorm,Scattered Clouds,350,2013-09-05 08:44:00
2:53 AM,70.0,57.9,65,29.91,10.0,Calm,Calm,-,N/A,Thunderstorm,Partly Cloudy,0,2013-09-05 08:53:00
3:07 AM,69.8,57.2,64,30.00,10.0,West,3.5,-,N/A,,Clear,280,2013-09-05 09:07:00
3:53 AM,70.0,59.0,68,29.88,10.0,Calm,Calm,-,N/A,,Clear,0,2013-09-05 09:53:00
4:53 AM,66.0,59.0,78,29.91,10.0,SW,6.9,-,N/A,,Clear,220,2013-09-05 10:53:00
5:53 AM,69.1,59.0,70,29.91,10.0,East,8.1,-,0.00,,Partly Cloudy,100,2013-09-05 11:53:00
6:53 AM,66.0,59.0,78,29.94,10.0,West,8.1,-,N/A,,Clear,270,2013-09-05 12:53:00
7:53 AM,64.9,60.1,84,29.98,10.0,NNE,4.6,-,N/A,,Mostly Cloudy,30,2013-09-05 13:53:00
8:53 AM,64.0,61.0,90,30.01,3.0,East,4.6,-,0.01,Rain,Light Rain,100,2013-09-05 14:53:00
9:53 AM,64.9,62.1,90,30.00,10.0,Variable,5.8,-,0.03,,Mostly Cloudy,0,2013-09-05 15:53:00
10:53 AM,70.0,63.0,78,29.96,10.0,ENE,5.8,-,N/A,,Scattered Clouds,60,2013-09-05 16:53:00
11:53 AM,75.9,62.1,62,29.94,10.0,Calm,Calm,-,N/A,,Clear,0,2013-09-05 17:53:00
12:53 PM,81.0,60.1,49,29.90,10.0,SE,9.2,-,N/A,,Clear,140,2013-09-05 18:53:00
1:53 PM,81.0,59.0,47,29.88,10.0,SE,3.5,-,N/A,,Partly Cloudy,130,2013-09-05 19:53:00
2:00 PM,82.4,60.8,48,29.97,10.0,Variable,6.9,-,N/A,,Clear,0,2013-09-05 20:00:00
2:07 PM,82.4,60.8,48,29.96,10.0,South,6.9,-,N/A,,Clear,170,2013-09-05 20:07:00
2:16 PM,82.4,60.8,48,29.95,10.0,Calm,Calm,-,N/A,,Clear,0,2013-09-05 20:16:00
2:23 PM,84.2,60.8,45,29.94,10.0,Variable,3.5,-,N/A,,Clear,0,2013-09-05 20:23:00
2:34 PM,84.2,59.0,42,29.94,10.0,SSE,6.9,-,N/A,,Clear,160,2013-09-05 20:34:00
2:48 PM,86.0,59.0,40,29.92,10.0,Variable,6.9,-,N/A,,Clear,0,2013-09-05 20:48:00
2:53 PM,84.9,57.9,40,29.83,10.0,SSE,8.1,-,N/A,,Clear,160,2013-09-05 20:53:00
3:06 PM,86.0,57.2,37,29.92,10.0,SSE,9.2,-,N/A,,Clear,150,2013-09-05 21:06:00
3:53 PM,84.9,55.9,37,29.79,10.0,SE,11.5,17.3,N/A,,Mostly Cloudy,140,2013-09-05 21:53:00
4:03 PM,86.0,55.4,35,29.89,10.0,South,20.7,24.2,N/A,Thunderstorm,Overcast,190,2013-09-05 22:03:00
4:13 PM,73.4,60.8,65,29.89,8.0,West,23.0,40.3,N/A,Thunderstorm,Overcast,260,2013-09-05 22:13:00
4:25 PM,69.8,60.8,73,29.89,10.0,WNW,19.6,36.8,N/A,,Mostly Cloudy,290,2013-09-05 22:25:00
4:51 PM,69.8,60.8,73,29.92,10.0,West,8.1,-,N/A,Thunderstorm,Thunderstorm,260,2013-09-05 22:51:00
4:53 PM,70.0,60.1,71,29.86,10.0,North,8.1,-,N/A,Thunderstorm,Thunderstorm,350,2013-09-05 22:53:00
5:25 PM,73.4,62.6,69,29.86,10.0,NE,8.1,-,N/A,,Clear,40,2013-09-05 23:25:00
5:53 PM,73.9,61.0,64,29.79,10.0,WSW,18.4,25.3,N/A,,Scattered Clouds,250,2013-09-05 23:53:00
6:01 PM,71.6,60.8,69,29.93,8.0,West,27.6,50.6,N/A,Thunderstorm,Mostly Cloudy,270,2013-09-06 00:01:00
6:12 PM,66.2,64.4,94,29.92,8.0,WNW,12.7,32.2,0.00,Rain-Thunderstorm,Light Thunderstorms and Rain,300,2013-09-06 00:12:00
6:30 PM,68.0,64.4,88,29.92,10.0,North,10.4,-,0.01,,Mostly Cloudy,360,2013-09-06 00:30:00
6:51 PM,69.8,64.4,83,29.91,10.0,NNE,11.5,-,0.01,,Scattered Clouds,30,2013-09-06 00:51:00
6:53 PM,69.1,64.0,84,29.84,10.0,NNE,10.4,-,0.01,,Scattered Clouds,30,2013-09-06 00:53:00
7:53 PM,72.0,63.0,73,29.80,10.0,Calm,Calm,-,N/A,,Clear,0,2013-09-06 01:53:00
8:53 PM,72.0,62.1,71,29.82,10.0,SSE,8.1,-,N/A,,Clear,150,2013-09-06 02:53:00
9:53 PM,66.9,64.9,93,29.85,10.0,West,6.9,-,N/A,,Scattered Clouds,280,2013-09-06 03:53:00
10:42 PM,66.2,64.4,94,29.93,7.0,NW,4.6,-,N/A,,Scattered Clouds,310,2013-09-06 04:42:00
10:49 PM,66.2,64.4,94,29.93,6.0,NW,4.6,-,N/A,,Mostly Cloudy,310,2013-09-06 04:49:00
10:53 PM,66.9,66.0,97,29.86,6.0,NW,3.5,-,N/A,,Mostly Cloudy,320,2013-09-06 04:53:00
11:32 PM,66.2,66.2,100,29.94,6.0,Calm,Calm,-,N/A,,Scattered Clouds,0,2013-09-06 05:32:00
11:53 PM,66.9,64.9,93,29.88,5.0,Calm,Calm,-,N/A,,Scattered Clouds,0,2013-09-06 05:53:00